Weather History for KAFF - April, 2014

Change the Weather History Date:

Monday, April 14, 2014

  Actual Average Record
Temperature  
Mean Temperature 26 °F -  
Max Temperature 37 °F 52 °F 71 °F (2003)
Min Temperature 15 °F 30 °F 15 °F (2007)
Degree Days  
Heating Degree Days 39    
Moisture  
Dew Point 12 °F    
Average Humidity 73    
Maximum Humidity 86    
Minimum Humidity 41    
Precipitation  
Precipitation 0.00 in - - ()
Sea Level Pressure  
Sea Level Pressure 30.24 in    
Wind  
Wind Speed 13 mph (NNW)    
Max Wind Speed 20 mph    
Max Gust Speed 24 mph    
Visibility 8 miles    
Events Snow    
Averages and records for this station are not official NWS values.
T = Trace of Precipitation, MM = Missing Value Source: NWS Daily Summary

Daily Weather History Graph

Daily Weather History Graph

Search for Another Location

Airport or City:

Trip Planner

Search our weather history database for the weather conditions in past years. The results will help you decide how hot, cold, wet, or windy it might be!

Date:

Astronomy

Apr. 14, 2014 Rise Set
Actual Time 6:24 AM MDT 7:35 PM MDT
Civil Twilight 5:56 AM MDT 8:03 PM MDT
Nautical Twilight 5:23 AM MDT 8:36 PM MDT
Astronomical Twilight 4:49 AM MDT 9:10 PM MDT
Moon 7:17 PM MDT (4/14) 5:57 AM MDT (4/14)
Length of Visible Light 14h 06m
Length of Day
13h 11m
Full, 100% of the Moon is Illuminated
Apr 14
Full
Apr 15
Full
Apr 22
Last Quarter
Apr 29
New
May 6
First Quarter

Hourly Weather History & Observations

Time (MDT) Temp. Windchill Dew Point Humidity Pressure Visibility Wind Dir Wind Speed Gust Speed Precip Events Conditions
12:08 AM 17.6 °F 4.3 °F 12.2 °F 79% 30.15 in 3.0 mi NNW 12.7 mph - N/A Snow Light Snow
12:18 AM 17.6 °F 3.7 °F 14.0 °F 86% 30.15 in 2.5 mi NNW 13.8 mph - N/A Snow Light Snow
12:38 AM 17.6 °F 2.7 °F 14.0 °F 86% 30.15 in 3.0 mi NNW 16.1 mph 23.0 mph N/A Snow Light Snow
12:58 AM 17.4 °F 1.9 °F 12.9 °F 83% 30.30 in 3.0 mi NNW 17.3 mph 23.0 mph 0.00 in Snow Light Snow
1:03 AM 17.6 °F 3.7 °F 12.2 °F 79% 30.17 in 4.0 mi NNW 13.8 mph 23.0 mph N/A Snow Light Snow
1:08 AM 17.6 °F 5.7 °F 12.2 °F 79% 30.17 in 5.0 mi NNW 10.4 mph 23.0 mph N/A Snow Light Snow
1:28 AM 17.6 °F 2.7 °F 12.2 °F 79% 30.17 in 3.0 mi NNW 16.1 mph - N/A Snow Light Snow
1:43 AM 17.6 °F 1.7 °F 12.2 °F 79% 30.17 in 5.0 mi NNW 18.4 mph 24.2 mph N/A Snow Light Snow
1:48 AM 17.6 °F 2.2 °F 12.2 °F 79% 30.16 in 4.0 mi NNW 17.3 mph - N/A Snow Light Snow
1:53 AM 17.6 °F 3.7 °F 12.2 °F 79% 30.17 in 4.0 mi NNW 13.8 mph - N/A Snow Light Snow
1:58 AM 17.6 °F 2.7 °F 12.2 °F 79% 30.30 in 4.0 mi NW 16.1 mph 20.7 mph 0.00 in Snow Light Snow
2:03 AM 17.6 °F 3.7 °F 12.2 °F 79% 30.16 in 6.0 mi NNW 13.8 mph 20.7 mph N/A Snow Light Snow
2:33 AM 17.6 °F 3.2 °F 12.2 °F 79% 30.16 in 4.0 mi NNW 15.0 mph - N/A Snow Light Snow
2:38 AM 17.6 °F 2.7 °F 12.2 °F 79% 30.16 in 3.0 mi NNW 16.1 mph - N/A Snow Light Snow
2:48 AM 17.6 °F 2.7 °F 12.2 °F 79% 30.16 in 3.0 mi NNW 16.1 mph - N/A Snow Light Snow
2:58 AM 16.7 °F 1.5 °F 12.0 °F 82% 30.30 in 3.0 mi NNW 16.1 mph - 0.00 in Snow Light Snow
3:03 AM 15.8 °F 0.3 °F 12.2 °F 86% 30.16 in 5.0 mi NNW 16.1 mph - N/A Snow Light Snow
3:13 AM 17.6 °F 2.7 °F 10.4 °F 73% 30.17 in 8.0 mi NNW 16.1 mph - N/A Snow Light Snow
3:38 AM 17.6 °F 2.7 °F 10.4 °F 73% 30.17 in 6.0 mi NNW 16.1 mph 23.0 mph N/A Snow Light Snow
3:48 AM 17.6 °F 4.3 °F 10.4 °F 73% 30.17 in 8.0 mi NNW 12.7 mph - N/A Snow Light Snow
3:55 AM 17.6 °F 4.3 °F 10.4 °F 73% 30.18 in 10.0 mi NNW 12.7 mph - N/A   Mostly Cloudy
3:58 AM 16.9 °F 2.8 °F 11.1 °F 78% 30.34 in 10.0 mi NNW 13.8 mph - 0.00 in   Mostly Cloudy
4:00 AM 17.6 °F 3.2 °F 10.4 °F 73% 30.17 in 10.0 mi North 15.0 mph - N/A   Overcast
4:15 AM 17.6 °F 3.2 °F 12.2 °F 79% 30.17 in 10.0 mi NNW 15.0 mph - N/A   Mostly Cloudy
4:17 AM 17.6 °F 3.2 °F 12.2 °F 79% 30.17 in 10.0 mi North 15.0 mph - N/A   Overcast
4:27 AM 17.6 °F 3.2 °F 12.2 °F 79% 30.18 in 5.0 mi NNW 15.0 mph - N/A Snow Light Snow
4:32 AM 17.6 °F 3.2 °F 12.2 °F 79% 30.17 in 4.0 mi NNW 15.0 mph - N/A Snow Light Snow
4:37 AM 17.6 °F 3.2 °F 12.2 °F 79% 30.17 in 6.0 mi NNW 15.0 mph - N/A Snow Light Snow
4:46 AM 15.8 °F -0.2 °F 10.4 °F 79% 30.17 in 10.0 mi North 17.3 mph - N/A   Mostly Cloudy
4:49 AM 15.8 °F 1.4 °F 10.4 °F 79% 30.18 in 10.0 mi North 13.8 mph - N/A   Overcast
4:58 AM 16.7 °F 3.2 °F 9.5 °F 73% 30.34 in 10.0 mi NNW 12.7 mph - 0.00 in   Overcast
5:13 AM 15.8 °F 3.4 °F 10.4 °F 79% 30.18 in 10.0 mi NNW 10.4 mph - N/A   Overcast
5:18 AM 15.8 °F 1.4 °F 10.4 °F 79% 30.18 in 10.0 mi NNW 13.8 mph - N/A Snow Light Snow
5:56 AM 15.8 °F 4.2 °F 8.6 °F 73% 30.19 in 10.0 mi NNW 9.2 mph - N/A   Mostly Cloudy
5:58 AM 15.8 °F 4.2 °F 8.6 °F 73% 30.37 in 10.0 mi NNW 9.2 mph - 0.00 in   Mostly Cloudy
6:03 AM 15.8 °F 3.4 °F 8.6 °F 73% 30.19 in 10.0 mi NNW 10.4 mph - N/A   Mostly Cloudy
6:26 AM 15.8 °F 2.7 °F 8.6 °F 73% 30.20 in 10.0 mi NNW 11.5 mph - N/A Snow Light Snow
6:36 AM 15.8 °F 3.4 °F 8.6 °F 73% 30.20 in 7.0 mi North 10.4 mph - N/A Snow Light Snow
6:58 AM 15.4 °F 3.0 °F 10.0 °F 79% 30.40 in 8.0 mi NNW 10.4 mph - 0.00 in Snow Light Snow
7:13 AM 15.8 °F 0.9 °F 10.4 °F 79% 30.21 in 10.0 mi NNW 15.0 mph - N/A   Overcast
7:15 AM 15.8 °F 0.3 °F 10.4 °F 79% 30.21 in 10.0 mi NNW 16.1 mph - N/A Snow Light Snow
7:35 AM 15.8 °F 0.9 °F 8.6 °F 73% 30.22 in 10.0 mi NNW 15.0 mph - N/A Snow Light Snow
7:37 AM 15.8 °F 0.3 °F 8.6 °F 73% 30.22 in 10.0 mi NNW 16.1 mph - N/A   Mostly Cloudy
7:58 AM 16.0 °F 0.6 °F 8.8 °F 73% 30.43 in 10.0 mi North 16.1 mph - 0.00 in   Partly Cloudy
8:24 AM 17.6 °F 2.7 °F 8.6 °F 68% 30.23 in 10.0 mi North 16.1 mph - N/A Snow Light Snow
8:36 AM 17.6 °F 1.3 °F 8.6 °F 68% 30.23 in 10.0 mi North 19.6 mph 24.2 mph N/A   Partly Cloudy
8:58 AM 18.5 °F 3.3 °F 8.1 °F 64% 30.43 in 10.0 mi North 17.3 mph - 0.00 in   Clear
9:58 AM 21.9 °F 9.8 °F 8.8 °F 57% 30.43 in 10.0 mi North 12.7 mph - N/A   Clear
10:58 AM 24.8 °F 17.9 °F 9.9 °F 53% 30.42 in 10.0 mi NW 5.8 mph - N/A   Clear
11:58 AM 27.1 °F 18.9 °F 10.9 °F 51% 30.39 in 10.0 mi North 8.1 mph - N/A   Clear
12:58 PM 31.1 °F - 14.2 °F 50% 30.35 in 10.0 mi Variable 2.3 mph - N/A   Clear
1:58 PM 33.3 °F 25.7 °F 14.4 °F 46% 30.34 in 10.0 mi NNE 9.2 mph - N/A   Clear
2:58 PM 34.5 °F 30.4 °F 16.0 °F 47% 30.32 in 10.0 mi SSW 4.6 mph - N/A   Partly Cloudy
3:58 PM 36.5 °F 30.3 °F 15.1 °F 42% 30.27 in 10.0 mi South 8.1 mph - N/A   Clear
4:58 PM 37.4 °F 32.1 °F 15.4 °F 41% 30.26 in 10.0 mi Variable 6.9 mph - N/A   Clear
5:58 PM 37.4 °F 30.8 °F 17.4 °F 44% 30.26 in 10.0 mi South 9.2 mph - N/A   Clear
6:58 PM 34.5 °F 27.3 °F 19.2 °F 54% 30.28 in 10.0 mi SSE 9.2 mph - N/A   Clear
7:58 PM 30.6 °F 23.1 °F 21.2 °F 68% 30.29 in 10.0 mi South 8.1 mph - N/A   Clear
8:58 PM 28.2 °F 20.2 °F 22.6 °F 80% 30.34 in 10.0 mi SSE 8.1 mph - N/A   Clear
9:58 PM 27.1 °F 20.7 °F 22.3 °F 82% 30.33 in 10.0 mi SSE 5.8 mph - N/A   Clear
10:58 PM 26.6 °F 22.6 °F 22.5 °F 84% 30.30 in 10.0 mi SE 3.5 mph - N/A   Clear
11:58 PM 25.2 °F - 21.6 °F 86% 30.30 in 10.0 mi NNE 1.2 mph - N/A   Clear